Location: Berg
(47.2344°N, 9.5296°E)
Time: 22:56:00
(UTC+00:00)

Cosmos 2195 Rocket - Pass Details

Date: 24 January 2021
Orbit: 948 x 994 km, 82.9° (Epoch: 04 March)

Event Time Altitude Azimuth Distance (km) Brightness Sun altitude
Rises 18:02:46 0° 187° (S) 3,691 7.7 -18.6°
Reaches altitude 10° 18:05:17 10° 187° (S) 2,749 7.0 -19.0°
Maximum altitude 18:11:37 89° 279° (W) 1,002 4.5 -20.1°
Drops below altitude 10° 18:18:00 10° 9° (N) 2,767 6.7 -21.2°
Sets 18:20:32 0° 9° (N) 3,717 7.4 -21.6°
